IRIDIUM 106 1 41917U 17003A 26237.44539763 .00000069 00000+0 17632-4 0 9991 2 41917 86.3915 59.5784 0002331 82.4882 277.6579 14.34218048503135 IRIDIUM 103 1 41918U 17003B 26237.78155318 .00000063 00000+0 15579-4 0 9991 2 41918 86.3916 59.3373 0002296 92.9050 267.2409 14.34217800503202 IRIDIUM 109 1 41919U 17003C 26237.50882501 .00000068 00000+0 17292-4 0 9992 2 41919 86.3916 59.5121 0002193 90.5831 269.5616 14.34217911503133 IRIDIUM 102 1 41920U 17003D 26237.75618406 .00000039 00000+0 66842-5 0 9996 2 41920 86.3916 59.3307 0002142 88.1876 271.9565 14.34217215503255 IRIDIUM 105 1 41921U 17003E 26237.36593906 .00000002 00000+0 -64994-5 0 9998 2 41921 86.3972 27.9320 0001960 98.5087 261.6331 14.34217110505051 IRIDIUM 104 1 41922U 17003F 26237.76887872 .00000066 00000+0 16332-4 0 9992 2 41922 86.3916 59.3689 0002165 97.4184 262.7258 14.34218716503243 IRIDIUM 114 1 41923U 17003G 26237.49613594 .00000085 00000+0 23393-4 0 9997 2 41923 86.3916 59.4661 0002219 92.3745 267.7705 14.34217302503187 IRIDIUM 108 1 41924U 17003H 26237.66396338 .00000089 00000+0 24757-4 0 9990 2 41924 86.3966 27.6930 0002093 92.4845 267.6590 14.34217984505067 IRIDIUM 112 1 41925U 17003J 26237.76252634 .00000166 00000+0 52235-4 0 9990 2 41925 86.3912 59.1933 0002139 91.1787 268.9654 14.34217654503241 IRIDIUM 111 1 41926U 17003K 26237.74984043 .00000065 00000+0 16096-4 0 9998 2 41926 86.3914 59.2709 0002193 89.0378 271.1069 14.34218165503220 IRIDIUM 113 1 42803U 17039A 26237.59026817 .00000019 00000+0 -19594-6 0 9999 2 42803 86.3955 293.1751 0002169 97.3108 262.8334 14.34217712481136 IRIDIUM 123 1 42804U 17039B 26237.28290508 .00000027 00000+0 24233-5 0 9999 2 42804 86.4007 324.7696 0002267 93.4270 266.7185 14.34217684479852 IRIDIUM 120 1 42805U 17039C 26237.58392563 .00000012 00000+0 -29169-5 0 9995 2 42805 86.3943 292.9511 0002160 90.5567 269.5876 14.34217600481121 IRIDIUM 115 1 42806U 17039D 26237.58807248 .00000214 00000+0 57506-4 0 9995 2 42806 86.4483 293.0877 0002501 91.5751 268.5736 14.43280140484276 IRIDIUM 118 1 42807U 17039E 26237.52392338 .00000006 00000+0 -50863-5 0 9999 2 42807 86.4005 324.6666 0002108 95.5640 264.5796 14.34217603479885 IRIDIUM 117 1 42808U 17039F 26237.68248836 .00000003 00000+0 -59318-5 0 9991 2 42808 86.4004 324.5573 0002190 94.3446 265.8000 14.34217490479935 IRIDIUM 126 1 42809U 17039G 26237.70785873 .00000012 00000+0 -26853-5 0 9990 2 42809 86.4008 324.5992 0002223 97.8668 262.2780 14.34217576479915 IRIDIUM 124 1 42810U 17039H 26237.45255861 .00000149 00000+0 38258-4 0 9994 2 42810 86.4434 261.3893 0002426 92.1322 268.0157 14.43278490485100 IRIDIUM 128 1 42811U 17039J 26237.76836384 .00000219 00000+0 71122-4 0 9999 2 42811 86.4020 356.0652 0002172 90.8611 269.2833 14.34217955479950 IRIDIUM 121 1 42812U 17039K 26237.65711785 .00000000 00000+0 -69825-5 0 9992 2 42812 86.4006 324.6484 0002087 93.8111 266.3323 14.34217477479784 IRIDIUM 133 1 42955U 17061A 26237.38146505 .00000047 00000+0 95663-5 0 9996 2 42955 86.4020 356.3457 0002184 92.4958 267.6488 14.34218293464699 IRIDIUM 100 1 42956U 17061B 26237.58442953 .00000013 00000+0 -25764-5 0 9994 2 42956 86.4018 356.1781 0002182 93.3870 266.7575 14.34217663464727 IRIDIUM 122 1 42957U 17061C 26237.34341117 .00000012 00000+0 -27984-5 0 9994 2 42957 86.4017 356.2791 0002252 94.9712 265.1741 14.34217728464695 IRIDIUM 129 1 42958U 17061D 26237.36878092 .00000064 00000+0 15863-4 0 9992 2 42958 86.4020 356.3363 0002100 98.9333 261.2101 14.34217679464716 IRIDIUM 119 1 42959U 17061E 26237.75567995 -.00000014 00000+0 -11996-4 0 9993 2 42959 86.4017 356.1712 0002140 96.3165 263.8274 14.34217388464781 IRIDIUM 107 1 42960U 17061F 26237.35609687 .00000021 00000+0 32669-6 0 9994 2 42960 86.4019 356.3593 0002432 92.5438 267.6037 14.34217742464737 IRIDIUM 132 1 42961U 17061G 26237.36243644 .00000193 00000+0 61806-4 0 9996 2 42961 86.4018 356.3357 0002178 94.9209 265.2236 14.34217606464738 IRIDIUM 136 1 42962U 17061H 26237.74299370 .00000156 00000+0 48487-4 0 9995 2 42962 86.4020 356.1838 0002139 92.9627 267.1814 14.34218011464805 IRIDIUM 139 1 42963U 17061J 26237.33072581 .00000024 00000+0 14999-5 0 9990 2 42963 86.4021 356.4188 0002234 92.2075 267.9377 14.34217799464752 IRIDIUM 125 1 42964U 17061K 26237.38780993 .00000007 00000+0 -43929-5 0 9996 2 42964 86.4018 356.4576 0002505 100.6189 259.5289 14.34217589464779 IRIDIUM 135 1 43070U 17083A 26237.22239823 .00000028 00000+0 28877-5 0 9990 2 43070 86.3952 293.1614 0002288 94.5360 265.6098 14.34217625454040 IRIDIUM 138 1 43071U 17083B 26237.59661152 .00000027 00000+0 26470-5 0 9991 2 43071 86.3965 292.7111 0002331 97.1115 263.0346 14.34217614454088 IRIDIUM 116 1 43072U 17083C 26237.56489828 .00000008 00000+0 -42519-5 0 9999 2 43072 86.3947 293.0029 0002180 87.0825 273.0620 14.34217480454110 IRIDIUM 130 1 43073U 17083D 26237.60295399 .00000043 00000+0 82008-5 0 9998 2 43073 86.3960 293.2696 0002420 89.4976 270.6498 14.34217784454065 IRIDIUM 151 1 43074U 17083E 26237.57758368 .00000009 00000+0 -37798-5 0 9994 2 43074 86.3951 293.0571 0002153 92.5435 267.6008 14.34217473454084 IRIDIUM 134 1 43075U 17083F 26237.61563882 .00000056 00000+0 12992-4 0 9994 2 43075 86.3954 293.0507 0002330 92.5496 267.5966 14.34217877454058 IRIDIUM 137 1 43076U 17083G 26237.55855536 -.00000029 00000+0 -17362-4 0 9996 2 43076 86.3951 293.1680 0001901 87.3043 272.8371 14.34217230454111 IRIDIUM 141 1 43077U 17083H 26237.62198139 .00000026 00000+0 21497-5 0 9994 2 43077 86.3949 292.9686 0002260 95.5762 264.5692 14.34217609454125 IRIDIUM 153 1 43078U 17083J 26237.50439125 -.00000002 00000+0 -76236-5 0 9992 2 43078 86.3913 261.4825 0002260 94.9532 265.1922 14.34217468455218 IRIDIUM 131 1 43079U 17083K 26237.60929606 .00000129 00000+0 38955-4 0 9995 2 43079 86.3957 293.1647 0002215 95.3092 264.8357 14.34218106454056 IRIDIUM 144 1 43249U 18030A 26237.30141970 .00000146 00000+0 45092-4 0 9993 2 43249 86.3910 261.4949 0002301 88.9928 271.1531 14.34216925440045 IRIDIUM 149 1 43250U 18030B 26237.30777095 .00000022 00000+0 77987-6 0 9991 2 43250 86.3911 261.4586 0002196 93.1372 267.0075 14.34217603440061 IRIDIUM 157 1 43251U 18030C 26237.46633558 -.00000024 00000+0 -15772-4 0 9990 2 43251 86.3912 261.4468 0002185 91.6554 268.4892 14.34217393440063 IRIDIUM 140 1 43252U 18030D 26237.13652071 -.00000027 00000+0 -16645-4 0 9999 2 43252 86.3912 261.5974 0002227 91.5755 268.5696 14.34217330440071 IRIDIUM 145 1 43253U 18030E 26237.33314115 -.00000001 00000+0 -72807-5 0 9991 2 43253 86.3911 261.4870 0002231 84.2779 275.8672 14.34217556440036 IRIDIUM 146 1 43254U 18030F 26237.31411278 -.00000011 00000+0 -11089-4 0 9993 2 43254 86.3913 261.5070 0002216 88.8626 271.2824 14.34217461440041 IRIDIUM 148 1 43255U 18030G 26237.14286288 .00000002 00000+0 -64168-5 0 9992 2 43255 86.3915 261.6230 0002072 92.0833 268.0600 14.34217508440059 IRIDIUM 142 1 43256U 18030H 26237.45999320 .00000010 00000+0 -35393-5 0 9992 2 43256 86.3910 261.3767 0002160 87.3136 272.8307 14.34217560440064 IRIDIUM 150 1 43257U 18030J 26237.14920660 .00000046 00000+0 95086-5 0 9993 2 43257 86.3914 261.6255 0002346 90.3819 269.7645 14.34217722440040 IRIDIUM 143 1 43258U 18030K 26237.47903119 .00000150 00000+0 46356-4 0 9991 2 43258 86.3915 261.5827 0002358 88.9375 271.2091 14.34220497440023 IRIDIUM 161 1 43478U 18047C 26237.77715517 .00000086 00000+0 19524-4 0 9994 2 43478 86.4436 59.3498 0002085 93.1447 266.9992 14.43280652435178 IRIDIUM 152 1 43479U 18047D 26237.03312896 .00000079 00000+0 20974-4 0 9990 2 43479 86.3912 59.5233 0002152 90.6176 269.5266 14.34217397432358 IRIDIUM 147 1 43480U 18047E 26237.73715499 .00000051 00000+0 11257-4 0 9999 2 43480 86.3912 59.2348 0002147 86.4095 273.7346 14.34218092432451 IRIDIUM 110 1 43481U 18047F 26237.46442714 .00000066 00000+0 16641-4 0 9995 2 43481 86.3915 59.4428 0002060 96.7455 263.3976 14.34217734432405 IRIDIUM 162 1 43482U 18047G 26237.77085141 .00000090 00000+0 20832-4 0 9991 2 43482 86.4435 59.2426 0002243 88.7611 271.3846 14.43280470435166 IRIDIUM 160 1 43569U 18061A 26237.68933405 .00000025 00000+0 16882-5 0 9997 2 43569 86.3969 27.7217 0002104 92.1113 268.0323 14.34217699423335 IRIDIUM 166 1 43570U 18061B 26237.71470436 .00000030 00000+0 34814-5 0 9994 2 43570 86.3970 27.6609 0002162 89.7259 270.4184 14.34217810423360 IRIDIUM 158 1 43571U 18061C 26237.40391784 -.00000028 00000+0 -16957-4 0 9995 2 43571 86.3968 27.8013 0002105 92.8650 267.2786 14.34217241423287 IRIDIUM 165 1 43572U 18061D 26237.35951953 .00000151 00000+0 46978-4 0 9991 2 43572 86.3973 27.8671 0002165 89.9709 270.1735 14.34218079423302 IRIDIUM 155 1 43573U 18061E 26237.39122643 .00000192 00000+0 61406-4 0 9990 2 43573 86.3967 27.7196 0002233 91.1860 268.9591 14.34220185423278 IRIDIUM 154 1 43574U 18061F 26237.65127646 .00000193 00000+0 61923-4 0 9993 2 43574 86.3973 27.7478 0002100 88.6455 271.4982 14.34217257423362 IRIDIUM 163 1 43575U 18061G 26237.42294443 .00000025 00000+0 17856-5 0 9990 2 43575 86.3967 27.7563 0002157 93.4940 266.6502 14.34216788423302 IRIDIUM 156 1 43576U 18061H 26237.39757589 .00000189 00000+0 60553-4 0 9994 2 43576 86.3966 27.7749 0002261 91.5730 268.5724 14.34219655423291 IRIDIUM 164 1 43577U 18061J 26237.65762110 .00000001 00000+0 -65305-5 0 9995 2 43577 86.3968 27.7073 0002001 89.0259 271.1166 14.34217504423374 IRIDIUM 159 1 43578U 18061K 26237.41660269 .00000137 00000+0 41885-4 0 9997 2 43578 86.3967 27.7431 0002142 94.6189 265.5252 14.34217864423307 IRIDIUM 180 1 43922U 19002A 26237.69518786 .00000186 00000+0 59511-4 0 9991 2 43922 86.4011 324.5575 0002178 95.5087 264.6358 14.34218574398952 IRIDIUM 176 1 43923U 19002B 26237.68995267 .00000590 00000+0 89682-4 0 9995 2 43923 86.6132 324.4934 0002375 92.5756 267.5733 14.72253533409471 IRIDIUM 168 1 43924U 19002C 26237.68883056 .00000031 00000+0 40357-5 0 9995 2 43924 86.4013 324.6392 0002218 95.7013 264.4436 14.34217776398936 IRIDIUM 173 1 43925U 19002D 26237.67614525 .00000010 00000+0 -35307-5 0 9995 2 43925 86.4005 324.5303 0002147 95.4137 264.7303 14.34217651398910 IRIDIUM 169 1 43926U 19002E 26237.59935330 .00000218 00000+0 64702-4 0 9996 2 43926 86.4274 356.1792 0002708 93.1451 267.0057 14.38612546400203 IRIDIUM 172 1 43927U 19002F 26237.66980270 .00000030 00000+0 37875-5 0 9992 2 43927 86.4009 324.5412 0002245 96.0922 264.0529 14.34217799398922 IRIDIUM 175 1 43928U 19002G 26237.10473080 .00000189 00000+0 49849-4 0 9996 2 43928 86.4465 261.7051 0003793 33.1984 326.9454 14.43642068408927 IRIDIUM 171 1 43929U 19002H 26237.65077396 .00000123 00000+0 36923-4 0 9994 2 43929 86.4019 324.8630 0002257 93.0574 267.0880 14.34218358398917 IRIDIUM 170 1 43930U 19002J 26237.69613095 .00000573 00000+0 86930-4 0 9994 2 43930 86.6130 324.4926 0002350 96.2761 263.8723 14.72254247409480 IRIDIUM 167 1 43931U 19002K 26237.64443247 .00000001 00000+0 -66543-5 0 9996 2 43931 86.4005 324.5744 0002265 88.4288 271.7167 14.34217068398914 IRIDIUM 181 1 56726U 23068S 26237.36652670 .00000256 00000+0 70155-4 0 9994 2 56726 86.4505 27.8571 0002020 91.2952 268.8480 14.43309421172410 IRIDIUM 177 1 56727U 23068T 26237.41936641 .00000771 00000+0 98426-4 0 9997 2 56727 86.1958 295.9297 0002535 95.9045 264.2465 14.80037395176605 IRIDIUM 174 1 56728U 23068U 26237.68377698 .00000623 00000+0 94872-4 0 9995 2 56728 86.6138 324.6521 0002611 100.0632 260.0879 14.72252603176241 IRIDIUM 178 1 56729U 23068V 26237.34086342 .00000892 00000+0 11444-3 0 9993 2 56729 86.6587 356.4723 0002479 93.3643 266.7862 14.80045587176598 IRIDIUM 179 1 56730U 23068W 26237.33548332 .00000873 00000+0 11189-3 0 9991 2 56730 86.6816 5.6539 0002488 90.1347 270.0160 14.80050303176590